[[{"header":{"parameterUnit":"m.s-1","parameterCategory":1,"la1":30.2991,"la2":30.254,"lo1":-89.0895,"lo2":-89.0444,"dy":0.0017,"dx":0.0017,"nx":28,"ny":28,"refTime":"2025-06-22T09:00:00:Z","depth":0,"parameterNumber":2,"parameterNumberName":"U-component_of_WINDS"},"data":[0,0,0,0,0,0,0,0,0,0,0,0,0,0,0,0,0,0,0,0,0,0,0,0,0,0,0,0,0,0,0,0,0,0,0,0,0,0,0,0,0,0,0,0,0,0,0,0,0,0,0,0,0,0,0,0,0,0,-2.5625,-2.5624,0,-2.5573,-2.5573,-2.5572,-2.5489,-2.5488,-2.5486,-2.5485,-2.5434,-2.5434,-2.5434,0,0,0,0,0,0,0,0,0,0,0,0,0,-2.5656,-2.5656,-2.5625,-2.5624,-2.5624,-2.5574,-2.5573,-2.5572,-2.5489,-2.5487,-2.5486,-2.5484,-2.5434,-2.5434,-2.5434,0,0,0,0,0,0,0,0,0,0,0,0,0,-2.5628,-2.5656,-2.5625,-2.5576,-2.5571,-2.5574,-2.5573,-2.5572,-2.549,-2.5487,-2.5485,-2.5483,-2.5434,-2.5434,-2.5434,-2.548,0,0,-2.5434,-2.5434,0,0,0,0,0,0,0,0,-2.5629,-2.5626,-2.5584,-2.558,-2.5574,-2.5535,-2.5565,-2.5541,-2.549,-2.5521,-2.5485,-2.5482,-2.547,-2.5467,-2.5462,-2.5478,-2.5476,-2.5434,-2.5434,-2.5434,-2.5434,0,0,0,0,0,0,0,-2.5631,-2.5628,-2.5605,-2.5584,-2.5578,-2.5558,-2.5552,-2.556,-2.5509,-2.5518,-2.5512,-2.5507,-2.5466,-2.5462,-2.546,-2.5475,-2.5434,-2.5434,-2.5435,-2.5435,-2.553,-2.5532,0,0,0,0,0,0,-2.564,-2.563,-2.5606,-2.5603,-2.5597,-2.556,-2.5552,-2.555,-2.5508,-2.55,-2.5509,-2.5503,-2.5463,-2.546,-2.5458,-2.5511,-2.5434,-2.5435,-2.5435,-2.5527,-2.553,-2.5533,0,0,0,0,0,0,-2.5641,-2.5639,-2.5608,-2.5615,-2.561,-2.5562,-2.556,-2.555,-2.5546,-2.5501,-2.5492,-2.5513,-2.5461,-2.5458,-2.5476,-2.5508,-2.5435,-2.5435,-2.5525,-2.5528,-2.5532,-2.5616,0,0,0,0,0,0,-2.5642,-2.5639,-2.5655,-2.5616,-2.561,-2.5626,-2.5562,-2.5551,-2.5546,-2.5538,-2.5503,-2.5495,-2.5459,-2.5476,-2.5476,-2.5507,-2.5435,-2.5521,-2.5526,-2.5531,-2.561,-2.5622,-2.5633,0,0,0,0,0,-2.5644,-2.5681,-2.5656,-2.5654,-2.5628,-2.5628,-2.5624,-2.5581,-2.5549,-2.5565,-2.5537,-2.5497,-2.5505,-2.5479,-2.5478,-2.5509,-2.5519,-2.5525,-2.553,-2.5605,-2.562,-2.5632,0,0,0,0,0,0,-2.5725,-2.5675,-2.5647,-2.5672,-2.5655,-2.5614,-2.5632,-2.5598,-2.5589,-2.5582,-2.553,-2.5523,-2.5548,-2.5531,-2.5502,-2.5553,-2.5506,-2.5512,-2.5563,-2.5577,-2.5588,-2.5591,-2.5435,0,0,0,0,0,-2.5746,-2.5749,-2.5705,-2.5732,-2.5725,-2.5681,-2.5679,-2.5647,-2.5627,-2.562,-2.5593,-2.5576,-2.5575,-2.5575,-2.5572,-2.5608,-2.5601,-2.563,-2.5641,-2.565,-2.5655,-2.5676,-2.5688,-2.5551,-2.5551,-2.5551,0,0,-2.5789,-2.5762,-2.5767,-2.5748,-2.573,-2.5736,-2.5675,-2.5682,-2.5686,-2.5621,-2.5636,-2.5617,-2.5595,-2.5623,-2.5634,-2.5609,-2.5692,-2.5657,-2.5665,-2.5665,-2.5683,-2.5696,-2.5707,-2.5555,-2.5554,-2.5554,0,0,-2.5869,-2.5849,-2.587,-2.5855,-2.583,-2.5801,-2.5806,-2.5771,-2.5756,-2.577,-2.5722,-2.5727,-2.5726,-2.5713,-2.5706,-2.5787,-2.575,-2.5788,-2.5845,-2.5866,-2.5877,-2.5886,-2.5916,-2.5927,-2.5793,-2.5794,-2.5794,0,-2.5926,-2.5931,-2.5885,-2.5897,-2.5891,-2.5833,-2.5855,-2.5842,-2.5818,-2.5816,-2.5789,-2.5788,-2.5769,-2.5794,-2.5814,-2.5811,-2.5816,-2.579,-2.5879,-2.5887,-2.5895,-2.5923,-2.5934,-2.5798,-2.5798,-2.5797,-2.5797,0,-2.6002,-2.6007,-2.6027,-2.6005,-2.6002,-2.6019,-2.5977,-2.598,-2.595,-2.5925,-2.5943,-2.5919,-2.591,-2.5914,-2.5885,-2.5937,-2.5922,-2.5888,-2.5839,-2.5914,-2.5939,-2.5949,-2.5805,-2.5803,-2.5802,-2.5801,0,0,-2.6129,-2.6085,-2.6093,-2.6083,-2.6053,-2.6057,-2.6073,-2.6064,-2.6068,-2.6055,-2.6068,-2.607,-2.6039,-2.6032,-2.6001,-2.6019,-2.6087,-2.5983,-2.5981,-2.6003,-2.6144,-2.6169,-2.6182,-2.6063,-2.6065,-2.6066,-2.6146,0,-2.6203,-2.6226,-2.6187,-2.6219,-2.6224,-2.6172,-2.6186,-2.6171,-2.6149,-2.6151,-2.6127,-2.613,-2.6088,-2.6084,-2.61,-2.6075,-2.6114,-2.6069,-2.6075,-2.6076,-2.6081,-2.6195,-2.6221,-2.6297,-2.6155,-2.6157,-2.6158,0,-2.6292,-2.6283,-2.6316,-2.6287,-2.6288,-2.6301,-2.6292,-2.6295,-2.6277,-2.626,-2.6255,-2.6219,-2.6235,-2.6189,-2.6211,-2.6181,-2.6182,-2.6171,-2.6173,-2.6171,-2.612,-2.6196,-2.632,-2.6331,-2.6173,-2.6172,-2.6171,0,-2.6382,-2.6379,-2.6398,-2.6392,-2.6358,-2.6369,-2.6356,-2.6336,-2.6335,-2.6328,-2.6327,-2.6323,-2.632,-2.6318,-2.6284,-2.6254,-2.6311,-2.6262,-2.6298,-2.6299,-2.6311,-2.631,-2.6436,-2.6313,-2.6313,-2.6313,-2.6313,0,-2.6468,-2.649,-2.6438,-2.645,-2.6475,-2.6432,-2.6458,-2.644,-2.6424,-2.6433,-2.6388,-2.6398,-2.6352,-2.6358,-2.6331,-2.6354,-2.6354,-2.6342,-2.6334,-2.6345,-2.6346,-2.6344,-2.6337,-2.6316,-2.6315,-2.6315,-2.6314,0,-2.6571,-2.6537,-2.6555,-2.6523,-2.6516,-2.6535,-2.6508,-2.6519,-2.6496,-2.6509,-2.6509,-2.6473,-2.6478,-2.6444,-2.6442,-2.6425,-2.6461,-2.6445,-2.6466,-2.6461,-2.6499,-2.6496,-2.6627,-2.6643,-2.651,-2.6512,-2.6513,0,-2.6627,-2.6643,-2.6614,-2.6616,-2.6605,-2.661,-2.6609,-2.6569,-2.657,-2.6554,-2.6568,-2.6569,-2.6567,-2.6578,-2.6553,-2.6552,-2.6535,-2.6582,-2.6535,-2.6546,-2.6536,-2.6535,-2.6538,-2.6591,-2.6592,-2.6594,-2.6595,0,-2.6731,-2.6715,-2.6714,-2.6709,-2.6709,-2.6703,-2.6694,-2.67,-2.6657,-2.6661,-2.6665,-2.6664,-2.6664,-2.6666,-2.6661,-2.6649,-2.6616,-2.661,-2.6619,-2.6629,-2.6641,-2.6636,-2.6492,-2.6607,-2.6606,-2.6605,-2.6604,-2.6604,-2.6812,-2.6825,-2.6807,-2.6809,-2.6798,-2.6792,-2.6802,-2.6781,-2.6783,-2.6779,-2.6756,-2.6766,-2.6752,-2.6741,-2.6734,-2.6742,-2.6719,-2.6731,-2.6734,-2.6738,-2.6745,-2.6641,-2.6741,-2.674,-2.674,-2.674,-2.6739,0,-2.6914,-2.6901,-2.6903,-2.6893,-2.6895,-2.6864,-2.6854,-2.6858,-2.6867,-2.6856,-2.6857,-2.6863,-2.6867,-2.6843,-2.6844,-2.6855,-2.684,-2.6856,-2.6854,-2.6853,-2.6764,-2.6757,-2.6869,-2.6869,-2.6869,-2.6869,-2.6869,-2.6869,-2.6967,-2.6987,-2.697,-2.6986,-2.6972,-2.698,-2.6978,-2.6973,-2.6964,-2.6974,-2.6976,-2.6961,-2.6946,-2.6946,-2.6948,-2.6942,-2.6944,-2.6966,-2.6954,-2.6871,-2.6859,-2.6847,-2.6839,-2.6967,-2.6967,-2.7042,-2.7043,-2.7043]},{"header":{"parameterUnit":"m.s-1","parameterCategory":1,"la1":30.2991,"la2":30.254,"lo1":-89.0895,"lo2":-89.0444,"dy":0.0017,"dx":0.0017,"nx":28,"ny":28,"refTime":"2025-06-22T09:00:00:Z","depth":0,"parameterNumber":3,"parameterNumberName":"V-component_of_WINDS"},"data":[0,0,0,0,0,0,0,0,0,0,0,0,0,0,0,0,0,0,0,0,0,0,0,0,0,0,0,0,0,0,0,0,0,0,0,0,0,0,0,0,0,0,0,0,0,0,0,0,0,0,0,0,0,0,0,0,0,0,2.4426,2.4426,0,2.4415,2.4415,2.4415,2.4471,2.4472,2.4474,2.4476,2.4459,2.4457,2.4455,0,0,0,0,0,0,0,0,0,0,0,0,0,2.4491,2.4489,2.4426,2.4426,2.4426,2.4415,2.4415,2.4415,2.4471,2.4473,2.4474,2.4476,2.446,2.4458,2.4455,0,0,0,0,0,0,0,0,0,0,0,0,0,2.4469,2.4489,2.4426,2.4452,2.4455,2.4415,2.4415,2.4415,2.447,2.4473,2.4475,2.4477,2.4461,2.4458,2.4455,2.4388,0,0,2.4446,2.4445,0,0,0,0,0,0,0,0,2.447,2.4467,2.4448,2.445,2.4453,2.4447,2.4432,2.4405,2.4469,2.4464,2.4476,2.4478,2.4453,2.4451,2.4443,2.4387,2.4386,2.4446,2.4444,2.4443,2.4442,0,0,0,0,0,0,0,2.4472,2.4468,2.4421,2.4448,2.4451,2.4463,2.4463,2.4427,2.4445,2.4465,2.4469,2.4467,2.4454,2.4446,2.4443,2.4386,2.4446,2.4443,2.4441,2.444,2.4275,2.4272,0,0,0,0,0,0,2.447,2.4468,2.4422,2.4421,2.4468,2.446,2.446,2.4446,2.4445,2.4448,2.4465,2.447,2.445,2.4446,2.4443,2.4364,2.4443,2.444,2.4438,2.4277,2.4274,2.4271,0,0,0,0,0,0,2.4472,2.4466,2.4422,2.4446,2.4441,2.4456,2.4441,2.4445,2.4436,2.4445,2.4448,2.4453,2.4451,2.4447,2.4401,2.4364,2.4439,2.4436,2.428,2.4276,2.4273,2.4206,0,0,0,0,0,0,2.4473,2.4466,2.4441,2.4445,2.444,2.4382,2.4438,2.4443,2.4432,2.4438,2.4435,2.4437,2.4453,2.4406,2.4399,2.4362,2.4434,2.4284,2.4279,2.4274,2.4212,2.42,2.4191,0,0,0,0,0,2.4475,2.4422,2.444,2.4434,2.441,2.438,2.4377,2.4398,2.4428,2.4403,2.4409,2.4437,2.437,2.44,2.4393,2.4354,2.4286,2.428,2.4274,2.4216,2.4202,2.4191,0,0,0,0,0,0,2.4411,2.4423,2.4443,2.4389,2.4383,2.4389,2.4358,2.4382,2.4366,2.4372,2.4398,2.4396,2.4346,2.4346,2.438,2.429,2.4333,2.4325,2.4291,2.4279,2.4268,2.4269,2.4431,0,0,0,0,0,2.4391,2.4367,2.4378,2.433,2.4326,2.4343,2.433,2.4347,2.4341,2.4339,2.4341,2.4333,2.4311,2.4295,2.4274,2.4213,2.4212,2.4182,2.4172,2.4163,2.4156,2.4123,2.4109,2.4252,2.4252,2.4252,0,0,2.4348,2.4352,2.4335,2.4317,2.4314,2.4288,2.434,2.4309,2.429,2.4333,2.4291,2.4293,2.4286,2.4232,2.4208,2.423,2.4117,2.4156,2.4149,2.4146,2.4115,2.4102,2.409,2.4248,2.4249,2.4249,0,0,2.4258,2.4258,2.4218,2.4215,2.4212,2.4223,2.4214,2.4216,2.422,2.4178,2.4211,2.4187,2.4147,2.4141,2.4132,2.4041,2.4065,2.4033,2.3978,2.3945,2.3934,2.3924,2.389,2.3878,2.4026,2.4026,2.4026,0,2.4205,2.4167,2.4194,2.4162,2.4152,2.4193,2.4152,2.4147,2.4136,2.4128,2.4154,2.4105,2.4103,2.4048,2.4026,2.4018,2.4007,2.4033,2.3934,2.3924,2.3915,2.3883,2.3871,2.4022,2.4022,2.4023,2.4023,0,2.4102,2.4076,2.4044,2.4034,2.4022,2.3985,2.4004,2.3988,2.4007,2.4015,2.3972,2.3972,2.3952,2.394,2.3957,2.3888,2.3901,2.393,2.3974,2.3897,2.3868,2.3856,2.4016,2.4018,2.4019,2.402,0,0,2.3969,2.3976,2.3963,2.396,2.396,2.3939,2.3904,2.3887,2.3872,2.3863,2.3834,2.38,2.3827,2.3817,2.3834,2.3805,2.3732,2.3837,2.3837,2.3817,2.3655,2.3632,2.3618,2.3749,2.3747,2.3745,2.3655,0,2.3879,2.3821,2.3845,2.3784,2.376,2.3799,2.3769,2.3764,2.3772,2.3751,2.3759,2.3734,2.3772,2.3766,2.374,2.3746,2.3699,2.3753,2.372,2.3719,2.372,2.3603,2.3579,2.3494,2.3644,2.3642,2.364,0,2.3766,2.3755,2.3693,2.3698,2.3688,2.3661,2.3647,2.3627,2.3623,2.3631,2.3621,2.3644,2.3609,2.3654,2.3605,2.3641,2.3629,2.363,2.3628,2.3624,2.3674,2.3595,2.3467,2.3454,2.3623,2.3624,2.3625,0,2.3674,2.3644,2.3603,2.3598,2.3603,2.3583,2.3583,2.3582,2.357,2.3558,2.355,2.3533,2.3523,2.3509,2.3526,2.3558,2.3475,2.3522,2.3479,2.3478,2.3458,2.3459,2.3325,2.3452,2.3452,2.3453,2.3453,0,2.3571,2.3531,2.3561,2.3536,2.3492,2.3519,2.3474,2.3479,2.3478,2.3453,2.3486,2.3461,2.3487,2.3464,2.3478,2.3435,2.3431,2.3434,2.3438,2.3431,2.343,2.3422,2.3428,2.3449,2.345,2.3451,2.3451,0,2.346,2.3479,2.3436,2.3445,2.3446,2.3414,2.342,2.3396,2.3407,2.3375,2.3369,2.3385,2.3361,2.3378,2.3352,2.3361,2.3305,2.3318,2.3307,2.331,2.3266,2.3269,2.3121,2.3103,2.3242,2.3241,2.324,0,2.3392,2.3363,2.3369,2.3356,2.3355,2.3333,2.3322,2.3347,2.3334,2.3328,2.3304,2.3283,2.3267,2.3226,2.3234,2.3215,2.3227,2.3177,2.3224,2.3218,2.3225,2.3226,2.3223,2.3166,2.3165,2.3163,2.3162,0,2.327,2.3281,2.3265,2.3251,2.3238,2.3228,2.3221,2.3207,2.3233,2.3217,2.3193,2.3181,2.3157,2.3135,2.3119,2.3119,2.3144,2.3148,2.3136,2.3128,2.3122,2.3124,2.3279,2.315,2.3151,2.3152,2.3153,2.3153,2.3178,2.3154,2.3154,2.3135,2.3133,2.3126,2.3104,2.3112,2.3094,2.3077,2.3093,2.3064,2.3061,2.3044,2.304,2.3017,2.3037,2.3021,2.3017,2.3012,2.3006,2.3127,2.3014,2.3015,2.3015,2.3015,2.3016,0,2.3057,2.306,2.3042,2.3032,2.3016,2.3044,2.3038,2.3022,2.2997,2.2993,2.2978,2.295,2.293,2.2937,2.2918,2.2899,2.291,2.2893,2.2894,2.2893,2.2989,2.3,2.2884,2.2884,2.2884,2.2884,2.2884,2.2884,2.2992,2.2952,2.2963,2.2922,2.2926,2.2899,2.2893,2.2886,2.2883,2.2852,2.2836,2.2841,2.2842,2.2824,2.2805,2.2808,2.2799,2.2777,2.2784,2.2873,2.2886,2.2898,2.2909,2.2776,2.2775,2.269,2.2689,2.2688]}]]